Regional Weather Roundup
Issued by NWS

Home | Current Version | Previous Version | Text Only | Print | Product List | Glossary Off
Versions: 1 2 3 4 5 6 7 8 9 10 11 12 13 14 15 16 17 18 19 20 21 22 23 24 25 26 27

000
ASUS45 KBOU 250707
RWRCO

WEATHER ROUNDUP FOR COLORADO
NATIONAL WEATHER SERVICE DENVER/BOULDER CO
100 AM MDT SAT OCT 25 2014

NOTE: "FAIR" INDICATES FEW OR NO CLOUDS BELOW 12000 FEET WITH NO
SIGNIFICANT WEATHER AND/OR OBSTRUCTIONS TO VISIBILITY.

COZ001>005-013-030-031-250800-
...NORTHWEST COLORADO...

CITY           SKY/WX    TMP DP  RH WIND       PRES   REMARKS
CRAIG          CLEAR     33  27  78 CALM      30.32S
HAYDEN         CLEAR     43  25  49 E12       30.33S
MEEKER         CLEAR     38  29  70 E5        30.33S
MOUNT WERNER   NOT AVBL
STEAMBOAT SPGS CLEAR     39  27  60 CALM      30.35F
WALDEN         CLEAR     34  19  55 E9        30.40S WCI  26
$$

COZ006>008-011-250800-
...WEST CENTRAL VALLEYS...

CITY           SKY/WX    TMP DP  RH WIND       PRES   REMARKS
GRAND JUNCTION CLEAR     50  34  54 E6        30.24S
MONTROSE       CLEAR     48  28  46 SE9       30.33S
EAGLE          PTCLDY    37  28  70 E3        30.41R
RIFLE          CLEAR     43  33  68 E3        30.31S
DELTA          CLEAR     46  33  59 CALM      30.30S
NUCLA          CLEAR     45  27  49 SE6       30.36R HAZE
$$

COZ017>023-064>068-250800-
...SOUTHWEST COLORADO...

CITY           SKY/WX    TMP DP  RH WIND       PRES   REMARKS
DURANGO        PTCLDY    41  34  76 CALM      30.38R
CORTEZ         CLEAR     35  27  72 NE5       30.33S WCI  31
PAGOSA SPRINGS PTCLDY    42  32  68 CALM      30.44R
TELLURIDE      CLEAR     44  26  50 SE8       30.51S
WOLF CREEK PAS CLEAR     41  23  48 SW14        N/A
$$

COZ009-010-012-014-032>034-037-058>063-250800-
...CENTRAL COLORADO...

CITY           SKY/WX    TMP DP  RH WIND       PRES   REMARKS
ASPEN          PTCLDY    42  22  44 SW10      30.43S
BUENA VISTA    CLEAR     40  20  45 SE5       30.43S
COPPER MTN     CLEAR     45  10  24 S10       30.64F
BERTHOUD PASS  FAIR      34  32  93 NW23      30.64F WCI  22
COTTONWOOD PAS CLEAR     50   1  13 NW8       30.52F
GUNNISON       PTCLDY    30  19  64 E5        30.49R WCI  25
KREMMLING      CLEAR     30  23  74 CALM        N/A
LEADVILLE      CLEAR     30  19  63 NE3       30.54R
MONARCH PASS   PTCLDY    37  12  35 W25       30.74S
SALIDA         CLEAR     45  21  37 NW10      30.50R
SUNLIGHT       CLEAR     45  21  39 CALM      30.59S
WILKERSON PASS NOT AVBL
$$

COZ069>075-250800-
...SAN LUIS VALLEY/SANGRE DE CRISTO MOUNTAINS...

CITY           SKY/WX    TMP DP  RH WIND       PRES   REMARKS
ALAMOSA        MOCLDY    35  24  64 CALM      30.40S
LA VETA PASS   NOT AVBL
SAGUACHE       PTCLDY    43  21  42 NW16      30.43S
$$

COZ035-036-038>040-250800-
...NORTHERN COLORADO FRONT RANGE...

CITY           SKY/WX    TMP DP  RH WIND       PRES   REMARKS
DENVER INTL AP CLEAR     55  25  31 SW14      30.20S
DMNS CITY PARK   N/A     56  24  28 S7        30.21S
AURORA         CLEAR     52  26  35 S8        30.23S
FRONT RANGE AP CLEAR     59  27  29 SW13      30.21F
ERIE MUNI ARPT CLEAR     44  28  53 SW6       30.19S
BOULDER MUN AP CLEAR     61  21  21 CALM      30.20S
CENTENNIAL     PTCLDY    56  23  27 SW10      30.23F
BROOMFIELD     CLEAR     55  21  26 CALM      30.22S
FORT COLLINS   CLEAR     50  30  46 N5        30.20S
LONGMONT       CLEAR     46  30  53 W6        30.20F
$$

COZ041-046-047-076>085-087-088-250800-
...PIKES PEAK/PALMER DIVIDE AND SOUTHERN FOOTHILLS...

CITY           SKY/WX    TMP DP  RH WIND       PRES   REMARKS
COLO. SPRINGS  CLEAR     48  27  44 N8        30.28S
A. F. ACADEMY  CLEAR     44  25  47 N8        30.30S
ELLICOTT       NOT AVBL
FALCON         CLEAR     44  25  48 W3        30.32S
FORT CARSON    CLEAR     52  25  36 NW9       30.25S
LIMON          CLEAR     39  31  72 N6        30.22S
MONUMENT HILL  PTCLDY    46  21  36 SW9       30.31S
TRINIDAD       CLEAR     54  29  38 W14       30.24F
$$

COZ042>045-048>051-090-091-250800-
...NORTHEAST COLORADO...

CITY           SKY/WX    TMP DP  RH WIND       PRES   REMARKS
GREELEY ARPT   CLEAR     43  28  56 NW8       30.18S
AKRON          CLEAR     58  25  28 S8        30.16S
BURLINGTON     CLEAR     47  31  53 W9        30.15S
WRAY           CLEAR     46  30  54 SW7       30.12S
STERLING       CLEAR     43  34  70 CALM      30.15R
HOLYOKE        CLEAR     46  34  61 W7        30.12F
FORT MORGAN    CLEAR     47  27  45 N3        30.17S
$$

COZ086-089-092>099-250800-
...SOUTHEAST COLORADO...

CITY           SKY/WX    TMP DP  RH WIND       PRES   REMARKS
PUEBLO         CLEAR     49  28  44 NW5       30.19S
LA JUNTA       CLEAR     49  36  61 W9        30.14R
LAMAR          CLEAR     46  38  73 CALM      30.10S
SPRINGFIELD      N/A     50  36  58 SW7       30.15F
$$



USA.gov is the U.S. government's official web portal to all federal, state and local government web resources and services.